Regional Weather Roundup
Issued by NWS

Home | Current Version | Previous Version | Graphics & Text | Print | Product List | Glossary On
Versions: 1 2 3 4 5 6 7 8 9 10 11 12 13 14 15 16 17 18 19 20 21 22 23 24 25 26 27
000
ASUS45 KBOU 221307
RWRCO

WEATHER ROUNDUP FOR COLORADO
NATIONAL WEATHER SERVICE DENVER/BOULDER CO
700 AM MDT WED MAR 22 2017

NOTE: "FAIR" INDICATES FEW OR NO CLOUDS BELOW 12000 FEET WITH NO
SIGNIFICANT WEATHER AND/OR OBSTRUCTIONS TO VISIBILITY.

COZ001>005-013-030-031-221400-
...NORTHWEST COLORADO...

CITY           SKY/WX    TMP DP  RH WIND       PRES   REMARKS
CRAIG          MOCLDY    40  31  70 CALM      30.00F
HAYDEN         FAIR      46  27  46 E12       30.01F
MEEKER         FAIR      46  30  53 NE3       30.00F
MOUNT WERNER   NOT AVBL
STEAMBOAT SPGS CLOUDY    39  31  71 CALM      30.05F
WALDEN         NOT AVBL
$$

COZ006>008-011-221400-
...WEST CENTRAL VALLEYS...

CITY           SKY/WX    TMP DP  RH WIND       PRES   REMARKS
GRAND JUNCTION FAIR      57  31  37 SE12      29.95S
MONTROSE       FAIR      54  26  34 E9        30.03S
EAGLE          PTCLDY    37  28  70 S7        30.09F
RIFLE          FAIR      44  33  65 CALM      30.00S
DELTA          FAIR      53  31  43 CALM      30.01R
NUCLA          FAIR      52  23  32 E8        30.08S
$$

COZ017>023-064>068-221400-
...SOUTHWEST COLORADO...

CITY           SKY/WX    TMP DP  RH WIND       PRES   REMARKS
DURANGO        FAIR      38  28  67 NE8       30.15S
CORTEZ         FAIR      36  30  79 CALM      30.08R
PAGOSA SPRINGS FAIR      38  28  68 CALM      30.21R
TELLURIDE      FAIR      49  18  29 SE6G21    30.22R
WOLF CREEK PAS CLOUDY    32  19  59 S21G28    30.37S WCI  20
$$

COZ009-010-012-014-032>034-037-058>063-221400-
...CENTRAL COLORADO...

CITY           SKY/WX    TMP DP  RH WIND       PRES   REMARKS
ASPEN          FAIR      44  25  47 S9        30.09F
BUENA VISTA    FAIR      28  25  87 CALM      30.17F
COPPER MTN     FAIR      36  19  51 S10       30.31S
BERTHOUD PASS  FAIR      30  19  64 W24G32    30.29F WCI  16
COTTONWOOD PAS MOCLDY    41  27  56 W3        30.22S
GUNNISON       FAIR      32  29  88 CALM      30.19S
KREMMLING      FAIR      37  30  75 W5        30.14S
LEADVILLE      FAIR      28  20  71 CALM      30.21F
MONARCH PASS   FAIR      32  21  64 SW18      30.41F WCI  20
SALIDA         FAIR      39  32  75 W5        30.24S
SUNLIGHT       NOT AVBL
WILKERSON PASS FAIR      32  23  69 SW16G25   30.28S WCI  21
$$

COZ069>075-221400-
...SAN LUIS VALLEY/SANGRE DE CRISTO MOUNTAINS...

CITY           SKY/WX    TMP DP  RH WIND       PRES   REMARKS
ALAMOSA        FAIR      25  20  81 VRB5      30.19R WCI  19
LA VETA PASS   NOT AVBL
SAGUACHE       FAIR      34  27  75 NW6       30.19S WCI  29
$$

COZ035-036-038>040-221400-
...NORTHERN COLORADO FRONT RANGE...

CITY           SKY/WX    TMP DP  RH WIND       PRES   REMARKS
DENVER INTL AP FAIR      37  31  78 W10       30.04S
DMNS CITY PARK   N/A     38  32  79 N2        30.04F
AURORA         PTCLDY    37  31  78 SW3       30.04F
FRONT RANGE AP PTCLDY    36  30  80 SW5       30.04F
ERIE MUNI ARPT FAIR      32  30  90 CALM      30.04F
BOULDER MUN AP FAIR      36  32  87 NE5       30.04S
CENTENNIAL     FAIR      37  30  75 S5        30.04F
BROOMFIELD     PTCLDY    37  32  81 CALM      30.05S
FORT COLLINS   FAIR      33  28  81 N10       30.04F WCI  25
LONGMONT       FAIR      38  31  77 N7        30.06S
$$

COZ041-046-047-076>085-087-088-221400-
...PIKES PEAK/PALMER DIVIDE AND SOUTHERN FOOTHILLS...

CITY           SKY/WX    TMP DP  RH WIND       PRES   REMARKS
COLO. SPRINGS  CLOUDY    35  28  75 S7        30.15F WCI  29
A. F. ACADEMY  CLOUDY    35  30  83 SE7       30.13F WCI  29
SCHRIEVER AFB  CLOUDY    33  28  79 S6        30.15F WCI  28
ELLICOTT       CLOUDY   N/A N/A N/A SE6       30.14S
FALCON         CLOUDY    32  31  94 S8        30.15F WCI  25
FORT CARSON    CLOUDY    36  28  73 SE5       30.14F
LIMON          CLOUDY    35  26  69 S16       30.14F WCI  25
MONUMENT HILL  FAIR      30  30 100 S17G25    30.11F FOG     WCI  18
TRINIDAD       FAIR      36  31  82 NW9       30.13S
$$

COZ042>045-048>051-090-091-221400-
...NORTHEAST COLORADO...

CITY           SKY/WX    TMP DP  RH WIND       PRES   REMARKS
GREELEY ARPT   FAIR      34  28  79 NE7       30.05R WCI  28
AKRON          FAIR      33  23  66 S20       30.10F WCI  21
BURLINGTON     CLOUDY    39  32  76 SE18      30.17S
WRAY           CLOUDY    37  32  81 SE14      30.17S
STERLING       FAIR      34  30  86 S9        30.10F WCI  26
HOLYOKE        MOCLDY    37  34  87 SE14      30.17R
FORT MORGAN    FAIR      36  24  62 SE13      30.08S
$$

COZ086-089-092>099-221400-
...SOUTHEAST COLORADO...

CITY           SKY/WX    TMP DP  RH WIND       PRES   REMARKS
PUEBLO         FAIR      34  27  75 N7        30.15S WCI  28
LA JUNTA       FAIR      41  34  76 S7        30.14S
LAMAR          CLOUDY    45  28  51 SE9       30.16S
SPRINGFIELD      N/A     40  35  83 S10       30.18S
$$




USA.gov is the U.S. government's official web portal to all federal, state and local government web resources and services.